sat.trackr.live / text

‹ back to catalog

STARLINK-1270

NORAD 45237 · 2020-012BM

PAYLOAD ACTIVE UNKNOWN

§ Identity

Operator
Country
US
Launch date
2020-02-17
Launch site
AFETR
Launch vehicle
Mass (kg)
RCS (m²)

Purposes: comms

External: N2YO · Heavens-Above · Gunter

§ Orbital elements

Epoch: 2026-09-15T22:32:18.770496Z

Period
91.05 min
Inclination
53.0348°
Eccentricity
0.0004655
Mean motion
15.81520868 rev/d
Perigee alt
323.0 km
Apogee alt
329.3 km
Semi-major
6,704.3 km
B*
4.7053e-4
RAAN
134.2357°
Arg perigee
122.9404°
Mean anomaly
237.2066°
Rev number
36,545

§ Raw data

STARLINK-12701 45237U 20012BM  26258.93910614  .00096122  00000+0  47053-3 0  99932 45237  53.0348 134.2357 0004655 122.9404 237.2066 15.81520868365456

JSON: /api/v1/satellites/45237 · /tle

For live sub-satellite position, see the globe view (requires WebGL).

§ Visibility from observer

Set your observer location to see the next 7 days of passes ≥ 10°. The values pass through the URL so the page stays shareable.

No JS? Fill the form by hand. The geolocation button needs JavaScript.